This is the latest recevied weather packets stored in our database for station/object SR5NLK-1. If no packets are shown the sender has not sent any weather packets the latest 1 day(s).
| Time | Temp. | Humidity | Pressure | Rain* | Wind** | Luminosity | Snow |
|---|---|---|---|---|---|---|---|
| 1777981653 | 32.78° C | 26% | 1007.3 hPa | 0 mm | 3.13 m/s, 202° | - | - |
| 1777981359 | 32.78° C | 26% | 1081.5 hPa | 0 mm | 2.68 m/s, 247° | - | - |
| 1777981172 | 32.78° C | 26% | 1067.9 hPa | 0 mm | 1.79 m/s, 202° | - | - |
| 1777981053 | 32.78° C | 27% | 1061.6 hPa | 0 mm | 1.79 m/s, 270° | - | - |
| 1777980753 | 32.78° C | 26% | 1009.1 hPa | 0 mm | 0.89 m/s, 135° | - | - |
| 1777980453 | 33.33° C | 27% | 1100.3 hPa | 0 mm | 1.34 m/s, 180° | - | - |
| 1777980153 | 33.33° C | 27% | 1037.1 hPa | 0 mm | 2.68 m/s, 202° | - | - |
| 1777979853 | 32.78° C | 28% | 1036.5 hPa | 0 mm | 3.13 m/s, 180° | - | - |
| 1777979553 | 32.78° C | 28% | 1045.9 hPa | 0 mm | 0.89 m/s, 270° | - | - |
| 1777979253 | 32.78° C | 28% | 971.6 hPa | 0 mm | 0.89 m/s, 202° | - | - |
| 1777979192 | 32.78° C | 27% | 1013.5 hPa | 0 mm | 1.34 m/s, 202° | - | - |
| 1777978953 | 32.78° C | 28% | 1001 hPa | 0 mm | 1.79 m/s, 270° | - | - |
| 1777978653 | 32.78° C | 28% | 1004.1 hPa | 0 mm | 2.24 m/s, 135° | - | - |
| 1777978353 | 32.78° C | 28% | 1058.5 hPa | 0 mm | 1.79 m/s, 157° | - | - |
| 1777978053 | 32.22° C | 28% | 1087.8 hPa | 0 mm | 0.45 m/s, 292° | - | - |
| 1777977753 | 32.22° C | 29% | 1004.1 hPa | 0 mm | 1.34 m/s, 247° | - | - |
| 1777977453 | 31.11° C | 29% | 976.5 hPa | 0 mm | 0 m/s | - | - |
| 1777977212 | 31.11° C | 29% | 1004.1 hPa | 0 mm | 1.34 m/s, 112° | - | - |
| 1777977153 | 31.11° C | 29% | 1055.4 hPa | 0 mm | 0.45 m/s, 90° | - | - |
| 1777976853 | 31.11° C | 29% | 1019.7 hPa | 0 mm | 0.89 m/s, 135° | - | - |
| 1777976553 | 31.11° C | 29% | 1049.1 hPa | 0 mm | 3.13 m/s, 22° | - | - |
| 1777976253 | 31.67° C | 29% | 1058.7 hPa | 0 mm | 2.24 m/s, 247° | - | - |
| 1777975953 | 32.22° C | 29% | 1049.1 hPa | 0 mm | 0.89 m/s, 45° | - | - |
| 1777975653 | 32.78° C | 30% | 1004.1 hPa | 0 mm | 1.34 m/s, 45° | - | - |
| 1777975353 | 32.22° C | 30% | 948 hPa | 0 mm | 1.34 m/s, 180° | - | - |
* Rain latest hour (hover to see other rain measurements)
** Current wind speed in m/s (hover to see current wind gust speed)